Preview of NWS' New Version of Forecast
This preview is not operational and should not be used for support decisions.

Regional Weather Roundup (RWR)

Issued by Philadelphia/Mt Holly (PHI)

                            
000
ASUS41 KPHI 170812
RWRPHI

REGIONAL WEATHER ROUNDUP
NATIONAL WEATHER SERVICE MOUNT HOLLY NJ
400 AM EDT TUE SEP 17 2019

NOTE:  "FAIR" INDICATES FEW OR NO CLOUDS BELOW 12,000 FEET WITH NO
SIGNIFICANT WEATHER AND/OR OBSTRUCTIONS TO VISIBILITY.

 * = STATION DOES NOT REPORT PRECIPITATION (E.G. RAIN, SNOW, ETC.) 
        OR FOG.

NJZ015>026-170900-
SOUTHERN NEW JERSEY
  
CITY           SKY/WX    TMP DP  RH WIND       PRES   REMARKS
POMONA         CLOUDY    70  63  78 E7        30.03F                  
WILDWOOD*      MOCLDY    71  68  90 NE7       30.02F                  
MILLVILLE      CLOUDY   N/A N/A N/A E7        30.02F                  
MOUNT HOLLY    CLOUDY    67  64  90 CALM      30.05S                  
TRENTON        CLOUDY    67  64  90 NE6       30.06S                  

$$
NJZ001>014-170900-
NORTHERN NEW JERSEY
  
CITY           SKY/WX    TMP DP  RH WIND       PRES   REMARKS
SUSSEX         FAIR      52  51  97 CALM      30.11S FOG              
ANDOVER*         N/A     58  57  97 CALM      30.10F                  
MORRISTOWN     FAIR      57  57 100 CALM      30.09S                  
NEWARK         MOCLDY    66  54  65 NE8       30.08S                  
TETERBORO      MOCLDY    64  55  72 N3        30.08S                  
CALDWELL       FAIR      62  59  90 NE3       30.10S                  
SOMERVILLE     MOCLDY    62  58  86 CALM      30.07R                  
ALLAIRE*       CLOUDY    67  56  67 NE7       30.08R                  
TOMS RIVER*    CLOUDY    67  67 100 NE6       30.06S                  

$$
PAZ043-044-047-054-055-060>062-066>071-170900-
EASTERN PENNSYLVANIA
  
CITY           SKY/WX    TMP DP  RH WIND       PRES   REMARKS
PHILADELPHIA   CLOUDY    70  63  78 NE6       30.06R                  
NORTH PHILA    CLOUDY    71  64  78 NE7       30.07S                  
BLUE BELL*     CLOUDY    66  62  88 CALM      30.07S                  
DOYLESTOWN     CLOUDY    65  61  87 CALM      30.06S                  
QUAKERTOWN*    MOCLDY    63  59  88 N5        30.08                   
PERKASIE*      CLOUDY    63  63 100 NE5       30.09R                  
POTTSTOWN      MOCLDY    63  59  87 VRB3      30.09R                  
LANCASTER      MOCLDY    68  60  75 NE9       30.07S                  
COATESVILLE    MOCLDY    66  61  82 CALM      30.08S                  
WEST CHESTER   CLOUDY    68  61  77 NE3       30.07S                  
READING        NOT AVBL                                               
ALLENTOWN      FAIR      61  52  72 E3        30.08S                  
QN CITY/ALNTWN FAIR      61  54  77 NE5       30.09S                  
MOUNT POCONO   FAIR      51  47  86 N9        30.12F                  
HAZLETON       FAIR      52  46  82 CALM      30.15S                  
LEHIGHTON      FAIR      52  52 100 CALM      30.11S                  
WILKES BARRE   FAIR      53  50  89 E3        30.12S                  

$$
DEZALL-MDZ008-012-015-019-020-170900-
DELAWARE AND EASTERN MARYLAND
  
CITY           SKY/WX    TMP DP  RH WIND       PRES   REMARKS
WILMINGTON     CLOUDY    70  65  84 N5        30.05S                  
CHESWOLD       PTSUNNY   70  68  94 NE3       30.02S                  
GEORGETOWN     MOCLDY    71  68  90 NE5       30.01S                  
EASTON         LGT RAIN  71  68  91 NE6       30.04S                  
STEVENSVILLE   LGT RAIN  72  68  88 NE6       30.02R                  
PATUXENT       FAIR      73  70  90 CALM      29.99                   
OCEAN CITY     FAIR      74  70  87 E8        29.99F                  
WALLOPS ISLAND MOCLDY    70  69  97 NW5       29.99S                  
CAMBRIDGE      CLOUDY    72  68  88 CALM      30.00R                  
SALISBURY      CLOUDY    70  67  90 CALM      29.99F                  

$$
PAZ001-021-NYZ056-072-MDZ011-DCZ001-170900-
OTHER NEARBY LOCATIONS
  
CITY           SKY/WX    TMP DP  RH WIND       PRES   REMARKS
HARRISBURG     CLOUDY    70  60  70 CALM      30.06S                  
STATE COLLEGE  FAIR      61  60  98 N6        30.13R                  
WILLIAMSPORT   FAIR      58  54  86 CALM      30.12R                  
BINGHAMTON     FAIR      50  45  83 NE7       30.14F                  
NEW YORK CITY  FAIR      66  48  52 VRB7      30.11S                  
BALTIMORE      CLOUDY    73  65  75 NE10      30.01F                  
WASHINGTON DC  MOCLDY    75  64  68 NE9       30.01S                  

$$